[[{"header":{"parameterUnit":"m.s-1","parameterCategory":2,"la1":30.2991,"la2":30.254,"lo1":-89.0895,"lo2":-89.0444,"dy":0.0017,"dx":0.0017,"nx":28,"ny":28,"refTime":"2025-07-15T21:00:00:Z","depth":"0","parameterNumber":2,"parameterNumberName":"U-component_of_CURRENTS"},"data":[0,0,0,0,0,0,0,0,0,0,0,0,0,0,0,0,0,0,0,0,0,0,0,0,0,0,0,0,0,0,0,0,0,0,0,0,0,0,0,0,0,0,0,0,0,0,0,0,0,0,0,0,0,0,0,0,0,0,0.1739,0.174,0,0.19,0.1903,0.1905,0.2009,0.2009,0.2009,0.2009,0.2004,0.2003,0.2003,0,0,0,0,0,0,0,0,0,0,0,0,0,0.1662,0.1663,0.1739,0.174,0.1741,0.19,0.1903,0.1906,0.2009,0.2009,0.2009,0.2009,0.2004,0.2003,0.2003,0,0,0,0,0,0,0,0,0,0,0,0,0,0.1753,0.1663,0.1738,0.1807,0.1814,0.1899,0.1903,0.1906,0.2009,0.2009,0.2009,0.2009,0.2004,0.2003,0.2003,0.2001,0,0,0.2002,0.2002,0,0,0,0,0,0,0,0,0.1747,0.1756,0.1796,0.1802,0.1811,0.1929,0.1874,0.1928,0.2009,0.1942,0.2009,0.2009,0.1958,0.1962,0.2004,0.2001,0.2001,0.2002,0.2002,0.2002,0.2002,0,0,0,0,0,0,0,0.1741,0.1751,0.181,0.1797,0.1806,0.1878,0.1891,0.1887,0.195,0.1948,0.1954,0.1962,0.1962,0.2005,0.2004,0.2001,0.2002,0.2002,0.2002,0.2002,0.2057,0.2058,0,0,0,0,0,0,0.17,0.1744,0.1804,0.1814,0.1771,0.1879,0.1893,0.1896,0.1954,0.1963,0.1961,0.1966,0.2005,0.2005,0.2004,0.2016,0.2002,0.2002,0.2002,0.2055,0.2057,0.2059,0,0,0,0,0,0,0.1698,0.1704,0.1798,0.1778,0.1794,0.1878,0.1882,0.1899,0.1932,0.1965,0.1972,0.1974,0.2005,0.2004,0.2026,0.2015,0.2002,0.2002,0.2053,0.2056,0.2058,0.2031,0,0,0,0,0,0,0.1695,0.1702,0.1697,0.1774,0.1793,0.1851,0.1882,0.1902,0.1934,0.1941,0.1978,0.1979,0.2005,0.2027,0.2026,0.2015,0.2002,0.2051,0.2054,0.2057,0.203,0.2032,0.2034,0,0,0,0,0,0.1691,0.1689,0.1696,0.1704,0.1781,0.1851,0.1869,0.1934,0.1934,0.1961,0.1995,0.1978,0.2045,0.2028,0.2027,0.2015,0.205,0.2053,0.2057,0.2029,0.2032,0.2034,0,0,0,0,0,0,0.1667,0.1701,0.171,0.1721,0.1777,0.1866,0.1887,0.192,0.1973,0.1959,0.1994,0.1999,0.2012,0.2026,0.2007,0.2047,0.2045,0.2048,0.2024,0.2027,0.2029,0.2038,0.2001,0,0,0,0,0,0.165,0.1646,0.1706,0.1712,0.1732,0.18,0.1833,0.1869,0.192,0.1944,0.1979,0.2007,0.203,0.2037,0.2062,0.2074,0.2111,0.2071,0.2073,0.2075,0.2087,0.2127,0.2133,0.207,0.207,0.207,0,0,0.1635,0.1656,0.1652,0.1704,0.1746,0.1773,0.1823,0.1857,0.188,0.1926,0.1967,0.2004,0.2036,0.2068,0.2073,0.2073,0.2122,0.2079,0.208,0.2091,0.2131,0.2137,0.2142,0.2073,0.2072,0.2072,0,0,0.1613,0.1625,0.1618,0.1651,0.1696,0.1744,0.1742,0.1823,0.1862,0.1902,0.1945,0.1993,0.2021,0.2074,0.209,0.2116,0.2127,0.2109,0.2124,0.2162,0.2167,0.2171,0.2257,0.227,0.2114,0.2114,0.2113,0,0.1594,0.1602,0.1634,0.1641,0.1666,0.1717,0.1733,0.1775,0.1857,0.1892,0.1902,0.2001,0.2029,0.2077,0.2113,0.2115,0.2156,0.2101,0.2161,0.2167,0.2172,0.2259,0.2273,0.2113,0.2113,0.2113,0.2113,0,0.158,0.1581,0.1582,0.1599,0.1631,0.1654,0.1703,0.174,0.1777,0.1834,0.1898,0.1972,0.2037,0.2055,0.2093,0.2149,0.2175,0.215,0.2145,0.2176,0.2267,0.2282,0.2111,0.2112,0.2112,0.2112,0,0,0.1569,0.157,0.1575,0.1573,0.1613,0.1642,0.166,0.1729,0.1742,0.1824,0.1882,0.1962,0.2015,0.2044,0.2097,0.2156,0.2249,0.2178,0.218,0.2249,0.2372,0.252,0.2551,0.2221,0.2223,0.2225,0.2432,0,0.1563,0.1557,0.1572,0.1574,0.1581,0.1619,0.1639,0.1688,0.1741,0.1807,0.1893,0.1957,0.1999,0.204,0.2102,0.2217,0.2283,0.2199,0.2347,0.2354,0.2466,0.2571,0.2651,0.2853,0.2447,0.2449,0.2451,0,0.1576,0.1563,0.1562,0.1562,0.1571,0.1576,0.1622,0.1647,0.1727,0.1768,0.1844,0.1914,0.2048,0.2054,0.2251,0.2193,0.2285,0.2367,0.2375,0.2533,0.2529,0.2753,0.2895,0.2748,0.2474,0.2473,0.2471,0,0.1585,0.1575,0.1574,0.1573,0.1571,0.158,0.1596,0.1645,0.1687,0.1758,0.1822,0.1924,0.2044,0.2133,0.235,0.2286,0.258,0.2493,0.2712,0.2724,0.2837,0.2857,0.2843,0.2608,0.2607,0.2607,0.2606,0,0.1602,0.1599,0.1568,0.156,0.1555,0.1562,0.1583,0.16,0.1666,0.1757,0.1813,0.1945,0.2072,0.2267,0.2371,0.2654,0.2595,0.2765,0.2798,0.2838,0.2855,0.2767,0.2661,0.2614,0.2613,0.2611,0.261,0,0.1627,0.1608,0.1591,0.1565,0.1557,0.1556,0.1584,0.1616,0.1661,0.1788,0.1831,0.2016,0.2289,0.2453,0.2677,0.2751,0.2894,0.3038,0.312,0.316,0.3181,0.3073,0.3022,0.2963,0.328,0.3285,0.3289,0,0.1641,0.1632,0.1592,0.1591,0.158,0.1578,0.1598,0.1613,0.1677,0.1874,0.1973,0.2253,0.2515,0.2917,0.3116,0.3352,0.314,0.3498,0.3379,0.3247,0.3148,0.2902,0.2833,0.3527,0.3533,0.3537,0.3541,0,0.1663,0.1651,0.1638,0.1632,0.1636,0.1643,0.1681,0.1725,0.1814,0.195,0.2222,0.2442,0.2892,0.3207,0.3514,0.366,0.3344,0.3605,0.3425,0.3337,0.311,0.3049,0.3335,0.3584,0.358,0.3577,0.3574,0.3573,0.1693,0.1695,0.1693,0.1698,0.17,0.1742,0.1771,0.1863,0.1993,0.2216,0.2412,0.2736,0.3135,0.3623,0.3768,0.393,0.3702,0.3813,0.3701,0.3465,0.3377,0.3802,0.4102,0.4101,0.41,0.4099,0.4098,0,0.1744,0.176,0.177,0.1776,0.1803,0.1788,0.1861,0.1919,0.2102,0.2328,0.2585,0.3034,0.3406,0.3688,0.399,0.3957,0.3798,0.3841,0.3458,0.3392,0.3776,0.3755,0.4046,0.4046,0.4046,0.4046,0.4046,0.4047,0.1776,0.181,0.1819,0.1876,0.1887,0.1925,0.1968,0.2066,0.2202,0.2494,0.2719,0.2953,0.3283,0.3646,0.3786,0.3787,0.3436,0.3404,0.3206,0.3425,0.3408,0.3392,0.3343,0.3542,0.3542,0.2779,0.2774,0.2769]},{"header":{"parameterUnit":"m.s-1","parameterCategory":2,"la1":30.2991,"la2":30.254,"lo1":-89.0895,"lo2":-89.0444,"dy":0.0017,"dx":0.0017,"nx":28,"ny":28,"refTime":"2025-07-15T21:00:00:Z","depth":"0","parameterNumber":3,"parameterNumberName":"V-component_of_CURRENTS"},"data":[0,0,0,0,0,0,0,0,0,0,0,0,0,0,0,0,0,0,0,0,0,0,0,0,0,0,0,0,0,0,0,0,0,0,0,0,0,0,0,0,0,0,0,0,0,0,0,0,0,0,0,0,0,0,0,0,0,0,-0.0075,-0.0075,0,-0.0155,-0.0156,-0.0157,-0.0241,-0.0242,-0.0242,-0.0243,-0.0422,-0.0427,-0.0431,0,0,0,0,0,0,0,0,0,0,0,0,0,-0.0028,-0.0028,-0.0075,-0.0075,-0.0075,-0.0154,-0.0156,-0.0158,-0.0241,-0.0242,-0.0242,-0.0243,-0.0421,-0.0426,-0.0431,0,0,0,0,0,0,0,0,0,0,0,0,0,-0.0078,-0.0029,-0.0075,-0.0121,-0.0126,-0.0154,-0.0156,-0.0158,-0.0241,-0.0242,-0.0242,-0.0243,-0.0419,-0.0426,-0.0432,-0.0456,0,0,-0.0452,-0.0454,0,0,0,0,0,0,0,0,-0.0075,-0.0081,-0.0114,-0.0118,-0.0123,-0.0183,-0.0205,-0.026,-0.0241,-0.0205,-0.0243,-0.0244,-0.0346,-0.0359,-0.0381,-0.0464,-0.0472,-0.0452,-0.0456,-0.0459,-0.0461,0,0,0,0,0,0,0,-0.0072,-0.0078,-0.0113,-0.0114,-0.012,-0.0149,-0.0158,-0.0216,-0.0277,-0.0208,-0.0212,-0.021,-0.0351,-0.0374,-0.0386,-0.0475,-0.0452,-0.0458,-0.0462,-0.0464,-0.0591,-0.0591,0,0,0,0,0,0,-0.0045,-0.0074,-0.0111,-0.0115,-0.0093,-0.0149,-0.0159,-0.0168,-0.0275,-0.0289,-0.0209,-0.0213,-0.0363,-0.0378,-0.0392,-0.0414,-0.0459,-0.0465,-0.0469,-0.0592,-0.0591,-0.0591,0,0,0,0,0,0,-0.0044,-0.0048,-0.0107,-0.009,-0.0099,-0.0148,-0.0159,-0.0169,-0.019,-0.0273,-0.0291,-0.0217,-0.0364,-0.0383,-0.0442,-0.0423,-0.0468,-0.0474,-0.0592,-0.0592,-0.0591,-0.0467,0,0,0,0,0,0,-0.0043,-0.0048,-0.0049,-0.0089,-0.0099,-0.0118,-0.0157,-0.017,-0.0184,-0.0191,-0.0286,-0.0304,-0.0366,-0.0431,-0.0448,-0.0432,-0.0479,-0.0593,-0.0592,-0.0591,-0.0472,-0.0463,-0.0454,0,0,0,0,0,-0.0041,-0.0043,-0.0049,-0.0053,-0.0098,-0.0116,-0.0125,-0.0167,-0.0183,-0.019,-0.0254,-0.0301,-0.0437,-0.0436,-0.0456,-0.0442,-0.0593,-0.0592,-0.0591,-0.0476,-0.0464,-0.0455,0,0,0,0,0,0,-0.0029,-0.0052,-0.006,-0.007,-0.0083,-0.0128,-0.0136,-0.0156,-0.021,-0.0218,-0.0301,-0.0323,-0.0363,-0.0422,-0.0419,-0.0476,-0.052,-0.0523,-0.0426,-0.0416,-0.0407,-0.0382,-0.0484,0,0,0,0,0,-0.002,-0.0027,-0.0047,-0.0053,-0.0057,-0.0091,-0.0103,-0.0123,-0.0169,-0.0194,-0.0257,-0.0323,-0.0373,-0.041,-0.0466,-0.0504,-0.0525,-0.0506,-0.0497,-0.0489,-0.0482,-0.0483,-0.0472,-0.0587,-0.0587,-0.0587,0,0,-0.0016,-0.0027,-0.0031,-0.0049,-0.0067,-0.0068,-0.0103,-0.0111,-0.0115,-0.0205,-0.0242,-0.0294,-0.0375,-0.0412,-0.0435,-0.0461,-0.0466,-0.0488,-0.048,-0.0478,-0.048,-0.0469,-0.0458,-0.0586,-0.0586,-0.0586,0,0,-0.0006,-0.0018,-0.0019,-0.0023,-0.003,-0.0047,-0.0041,-0.0075,-0.0095,-0.0129,-0.0184,-0.0219,-0.0316,-0.0354,-0.039,-0.0367,-0.0414,-0.0389,-0.0332,-0.0331,-0.0321,-0.0313,-0.031,-0.0302,-0.0391,-0.039,-0.039,0,0.0003,-0.0005,-0.002,-0.0015,-0.0011,-0.003,-0.0021,-0.004,-0.0088,-0.0092,-0.0129,-0.0217,-0.0284,-0.0306,-0.0304,-0.0344,-0.0354,-0.0361,-0.0316,-0.0308,-0.0301,-0.0301,-0.0294,-0.0384,-0.0385,-0.0386,-0.0386,0,0.0015,0.0012,0.0014,0.0015,0.002,0.0025,0.0016,0.0016,-0.0005,-0.0025,-0.0046,-0.0124,-0.0176,-0.0195,-0.0253,-0.0234,-0.0258,-0.0294,-0.0333,-0.0282,-0.0286,-0.028,-0.0376,-0.0378,-0.038,-0.0381,0,0,0.0025,0.0021,0.002,0.003,0.0039,0.0044,0.0063,0.007,0.0092,0.0047,0.0066,-0.0014,-0.0041,-0.0082,-0.0137,-0.0144,-0.0106,-0.0198,-0.0201,-0.0177,-0.0098,-0.0124,-0.0122,-0.013,-0.0129,-0.0128,-0.0114,0,0.0038,0.0045,0.0046,0.0069,0.0078,0.009,0.011,0.0124,0.0123,0.0136,0.0093,0.0075,-0.0002,-0.0016,-0.0031,-0.0086,-0.009,-0.0106,-0.0168,-0.017,-0.0185,-0.0116,-0.0084,-0.007,-0.0109,-0.0108,-0.0108,0,0.0055,0.0054,0.0072,0.0101,0.0108,0.0124,0.0178,0.0195,0.0225,0.0225,0.0222,0.0189,0.0173,0.0102,0.0051,0.0044,-0.0018,-0.006,-0.0061,-0.0126,-0.0186,-0.0134,-0.006,-0.0233,-0.01,-0.0101,-0.0101,0,0.0075,0.0081,0.0095,0.0104,0.0131,0.0153,0.0174,0.0218,0.0254,0.0289,0.0328,0.0294,0.0292,0.022,0.0122,0.009,0.0077,0.0019,-0.0058,-0.006,-0.0068,-0.0073,-0.0154,-0.0006,-0.0006,-0.0007,-0.0007,0,0.0097,0.0111,0.0099,0.0109,0.0143,0.0165,0.0221,0.0252,0.0312,0.0387,0.0367,0.0427,0.0323,0.0299,0.0185,0.0093,0.0123,-0.0026,-0.005,-0.0025,-0.0027,-0.0209,-0.0329,-0.0006,-0.0006,-0.0006,-0.0006,0,0.0131,0.012,0.0138,0.0147,0.0154,0.0183,0.0246,0.0303,0.0355,0.0464,0.0486,0.0532,0.0522,0.0414,0.0318,0.0186,-0.0001,0.0042,0.008,0.0059,-0.0195,-0.0309,-0.0412,-0.0483,-0.0034,-0.0034,-0.0035,0,0.016,0.0164,0.0161,0.018,0.0183,0.022,0.0268,0.0316,0.0395,0.0542,0.0613,0.0649,0.0721,0.0576,0.0364,0.019,0.0014,0.0059,-0.0008,-0.0185,-0.0331,-0.0399,-0.0455,0.0039,0.0039,0.0039,0.0039,0,0.0213,0.02,0.0205,0.023,0.0264,0.0317,0.0386,0.0455,0.0561,0.0681,0.086,0.0938,0.0828,0.0706,0.0442,0.0288,-0.0063,0.0055,-0.0129,-0.0276,-0.0353,-0.0439,-0.0003,0.0041,0.0041,0.0041,0.0041,0.0041,0.0259,0.0268,0.027,0.0303,0.0349,0.0444,0.0523,0.0639,0.08,0.1052,0.1074,0.1278,0.1027,0.0701,0.0431,-0.004,-0.0064,-0.0187,-0.0305,-0.0352,-0.0441,-0.0005,0.0,-0.0,-0.0,-0.0001,-0.0001,0,0.0323,0.0326,0.0357,0.0409,0.049,0.0495,0.0638,0.0768,0.1002,0.1251,0.1445,0.1496,0.1139,0.0727,0.0081,-0.031,-0.0445,-0.0532,-0.0623,-0.0661,-0.0259,-0.0279,-0.0333,-0.0333,-0.0333,-0.0333,-0.0333,-0.0333,0.036,0.0391,0.0399,0.0535,0.0589,0.073,0.0829,0.1042,0.1246,0.1617,0.1814,0.1935,0.1583,0.0364,-0.0475,-0.0664,-0.0942,-0.1007,-0.1159,-0.0907,-0.0884,-0.0862,-0.0908,-0.1093,-0.1094,-0.1474,-0.1478,-0.1481]}],[{"header":{"parameterUnit":"m.s-1","parameterCategory":2,"la1":30.2991,"la2":30.254,"lo1":-89.0895,"lo2":-89.0444,"dy":0.0017,"dx":0.0017,"nx":28,"ny":28,"refTime":"2025-07-15T21:00:00:Z","depth":"2","parameterNumber":2,"parameterNumberName":"U-component_of_CURRENTS"},"data":[0,0,0,0,0,0,0,0,0,0,0,0,0,0,0,0,0,0,0,0,0,0,0,0,0,0,0,0,0,0,0,0,0,0,0,0,0,0,0,0,0,0,0,0,0,0,0,0,0,0,0,0,0,0,0,0,0,0,-0.0098,-0.0097,0,-0.0102,-0.0103,-0.0105,-0.0146,-0.0146,-0.0145,-0.0145,-0.0076,-0.0075,-0.0073,0,0,0,0,0,0,0,0,0,0,0,0,0,-0.0198,-0.0197,-0.0099,-0.0097,-0.0096,-0.0102,-0.0103,-0.0105,-0.0146,-0.0146,-0.0145,-0.0145,-0.0077,-0.0075,-0.0073,0,0,0,0,0,0,0,0,0,0,0,0,0,-0.0187,-0.0196,-0.0099,-0.0106,-0.0106,-0.0102,-0.0104,-0.0105,-0.0146,-0.0146,-0.0145,-0.0145,-0.0078,-0.0075,-0.0073,-0.0068,0,0,-0.0066,-0.0065,0,0,0,0,0,0,0,0,-0.0188,-0.0185,-0.0107,-0.0106,-0.0105,-0.011,-0.0112,-0.0084,-0.0146,-0.0147,-0.0145,-0.0145,-0.0072,-0.007,-0.0094,-0.0065,-0.0062,-0.0066,-0.0064,-0.0063,-0.0063,0,0,0,0,0,0,0,-0.0188,-0.0186,-0.0115,-0.0105,-0.0104,-0.0133,-0.0132,-0.0109,-0.0122,-0.0146,-0.0146,-0.0123,-0.0073,-0.0096,-0.0092,-0.0061,-0.0066,-0.0064,-0.0062,-0.0061,0.0026,0.0026,0,0,0,0,0,0,-0.0155,-0.0186,-0.0114,-0.0113,-0.013,-0.013,-0.013,-0.0121,-0.0123,-0.012,-0.0123,-0.0125,-0.01,-0.0094,-0.0089,-0.0035,-0.0063,-0.0061,-0.006,0.0025,0.0026,0.0027,0,0,0,0,0,0,-0.0157,-0.0149,-0.0114,-0.0138,-0.0133,-0.0127,-0.0118,-0.0121,-0.01,-0.0104,-0.0102,-0.0092,-0.01,-0.0092,-0.0067,-0.0034,-0.006,-0.0058,0.0024,0.0025,0.0026,0.0043,0,0,0,0,0,0,-0.0161,-0.0151,-0.0136,-0.0135,-0.013,-0.0107,-0.0117,-0.0121,-0.0082,-0.0084,-0.0076,-0.0073,-0.0099,-0.0071,-0.0065,-0.0031,-0.0056,0.0022,0.0024,0.0026,0.0042,0.0045,0.0048,0,0,0,0,0,-0.0165,-0.0178,-0.0136,-0.0126,-0.0109,-0.0105,-0.0108,-0.0111,-0.008,-0.0088,-0.0083,-0.0071,-0.0055,-0.0069,-0.0062,-0.0027,0.0022,0.0024,0.0026,0.004,0.0044,0.0048,0,0,0,0,0,0,-0.0218,-0.0181,-0.0136,-0.0134,-0.0099,-0.0106,-0.0111,-0.0077,-0.008,-0.0051,-0.0067,-0.0065,-0.0032,-0.0027,-0.0041,0.0003,-0.001,-0.0007,-0.0001,0.0003,0.0006,0.001,-0.0054,0,0,0,0,0,-0.021,-0.0199,-0.0157,-0.0138,-0.0128,-0.0094,-0.0084,-0.0051,-0.0044,-0.0043,-0.006,-0.0044,-0.0025,-0.0008,-0.001,0.0024,0.0064,0.0054,0.0057,0.006,0.0068,0.0141,0.0152,0.0034,0.0034,0.0033,0,0,-0.0208,-0.0188,-0.0173,-0.0144,-0.0125,-0.0111,-0.0094,-0.0046,-0.0025,-0.0028,-0.0045,-0.0033,-0.0015,-0.0005,0.0015,0.0011,0.0119,0.0062,0.0065,0.0072,0.0145,0.0157,0.0167,0.0035,0.0035,0.0034,0,0,-0.0205,-0.0193,-0.0173,-0.015,-0.0081,-0.0087,-0.0052,-0.0034,-0.0028,-0.0011,-0.0005,0.0024,0.002,0.0029,0.0045,0.008,0.0129,0.0097,0.0124,0.0195,0.0206,0.0215,0.03,0.0317,0.0104,0.0104,0.0104,0,-0.0203,-0.0169,-0.0165,-0.0138,-0.0112,-0.0069,-0.003,-0.0033,-0.0007,0.0018,-0.001,0.0026,0.0032,0.0095,0.0085,0.0089,0.0144,0.0105,0.02,0.0211,0.022,0.0305,0.0323,0.0105,0.0105,0.0105,0.0104,0,-0.0177,-0.0139,-0.0137,-0.0097,-0.0081,-0.0042,-0.0019,-0.0005,0.0011,0.0028,0.0079,0.0063,0.0099,0.0103,0.0098,0.0185,0.0208,0.0192,0.019,0.0233,0.032,0.0339,0.0106,0.0106,0.0106,0.0105,0,0,-0.0191,-0.0134,-0.0117,-0.0067,-0.0042,-0.0013,0.0001,0.0038,0.01,0.0081,0.0145,0.0138,0.0164,0.0184,0.02,0.0242,0.0348,0.0247,0.025,0.0332,0.0533,0.0635,0.0666,0.0356,0.0359,0.0361,0.0572,0,-0.016,-0.0097,-0.0085,-0.0015,0.0016,0.0044,0.0051,0.0111,0.0128,0.0172,0.0203,0.0258,0.019,0.0249,0.027,0.0341,0.0397,0.0294,0.0478,0.0484,0.057,0.069,0.0485,0.0664,0.0591,0.0594,0.0597,0,-0.0122,-0.0086,-0.0013,0.0064,0.0081,0.0114,0.0184,0.0212,0.0279,0.0313,0.0362,0.0385,0.0456,0.0391,0.0507,0.0451,0.0495,0.0524,0.0533,0.0636,0.0622,0.0606,0.0702,0.0629,0.0627,0.0624,0.0622,0,-0.01,-0.0026,0.0034,0.006,0.0127,0.0178,0.0206,0.0272,0.0338,0.0432,0.052,0.0556,0.0654,0.0663,0.0714,0.0631,0.086,0.0758,0.0888,0.0896,0.0763,0.0755,0.0852,0.0852,0.0852,0.0851,0.0851,0,-0.0078,-0.0009,0.0064,0.0107,0.0196,0.0237,0.0341,0.0384,0.0491,0.0612,0.0615,0.0749,0.0732,0.0846,0.0812,0.0956,0.0952,0.094,0.0975,0.0767,0.0758,0.0741,0.0725,0.0859,0.0857,0.0856,0.0854,0,-0.0029,0.0007,0.0097,0.0184,0.0218,0.0298,0.0422,0.0511,0.0606,0.0776,0.0831,0.0961,0.1133,0.1137,0.123,0.1163,0.1232,0.1281,0.1058,0.1065,0.118,0.1162,0.1424,0.143,0.1435,0.1439,0.1442,0,0.001,0.0054,0.016,0.0222,0.0274,0.0382,0.0464,0.056,0.067,0.0917,0.1027,0.1257,0.1384,0.1576,0.1508,0.1526,0.1504,0.1394,0.1183,0.124,0.1247,0.1221,0.1198,0.1004,0.1004,0.1003,0.1003,0,0.0075,0.0112,0.0178,0.0289,0.039,0.0495,0.0626,0.0717,0.087,0.1018,0.1267,0.1389,0.1593,0.1564,0.1634,0.1568,0.1354,0.1396,0.1545,0.0913,0.0868,0.0866,0.0852,0.1,0.1,0.1,0.1001,0.1001,0.0131,0.0179,0.0254,0.0368,0.0477,0.0596,0.067,0.0813,0.0968,0.1158,0.1315,0.1448,0.1444,0.1469,0.1461,0.1441,0.1476,0.1319,0.1309,0.1302,0.1237,0.1206,0.139,0.1392,0.1394,0.1396,0.1398,0,0.0199,0.0243,0.0329,0.0447,0.0557,0.0624,0.0777,0.0817,0.0967,0.1144,0.1283,0.1171,0.1195,0.1287,0.1229,0.121,0.1041,0.1186,0.0929,0.0933,0.0937,0.0842,0.0896,0.0896,0.0895,0.0895,0,0,0.0233,0.0298,0.0324,0.0488,0.0591,0.0708,0.0785,0.0836,0.0927,0.0993,0.107,0.1109,0.1209,0.103,0.0982,0.0989,0.0945,0.0929,0.1313,0.1012,0.1016,0.0985,0.0845,0,0,0,0,0]},{"header":{"parameterUnit":"m.s-1","parameterCategory":2,"la1":30.2991,"la2":30.254,"lo1":-89.0895,"lo2":-89.0444,"dy":0.0017,"dx":0.0017,"nx":28,"ny":28,"refTime":"2025-07-15T21:00:00:Z","depth":"2","parameterNumber":3,"parameterNumberName":"V-component_of_CURRENTS"},"data":[0,0,0,0,0,0,0,0,0,0,0,0,0,0,0,0,0,0,0,0,0,0,0,0,0,0,0,0,0,0,0,0,0,0,0,0,0,0,0,0,0,0,0,0,0,0,0,0,0,0,0,0,0,0,0,0,0,0,0.0335,0.0334,0,0.0229,0.0228,0.0226,0.0154,0.0153,0.0153,0.0152,-0.0075,-0.008,-0.0086,0,0,0,0,0,0,0,0,0,0,0,0,0,0.038,0.0381,0.0335,0.0334,0.0332,0.0229,0.0228,0.0226,0.0154,0.0153,0.0153,0.0152,-0.0073,-0.0079,-0.0086,0,0,0,0,0,0,0,0,0,0,0,0,0,0.0326,0.0381,0.0335,0.0285,0.0279,0.023,0.0228,0.0226,0.0154,0.0153,0.0152,0.0152,-0.0071,-0.0079,-0.0087,-0.0125,0,0,-0.0113,-0.0116,0,0,0,0,0,0,0,0,0.0329,0.0324,0.0293,0.0288,0.0282,0.0205,0.0161,0.0103,0.0154,0.02,0.0152,0.0151,0.0009,-0.0006,-0.0024,-0.0136,-0.0146,-0.0114,-0.0119,-0.0122,-0.0125,0,0,0,0,0,0,0,0.0333,0.0328,0.0292,0.0292,0.0285,0.0235,0.0227,0.0149,0.0107,0.0196,0.0191,0.0181,0.0004,-0.0016,-0.003,-0.0149,-0.0113,-0.0121,-0.0126,-0.0129,-0.0353,-0.0354,0,0,0,0,0,0,0.0354,0.0332,0.0295,0.0289,0.0305,0.0235,0.0226,0.0229,0.011,0.0092,0.0182,0.0178,-0.0001,-0.0021,-0.0039,-0.0116,-0.0122,-0.013,-0.0135,-0.0352,-0.0353,-0.0354,0,0,0,0,0,0,0.0355,0.0352,0.03,0.0308,0.0298,0.0236,0.0239,0.0228,0.0183,0.01,0.008,0.0147,-0.0002,-0.0027,-0.0112,-0.0124,-0.0134,-0.0142,-0.0351,-0.0352,-0.0353,-0.0255,0,0,0,0,0,0,0.0357,0.0354,0.0349,0.031,0.0298,0.0265,0.024,0.0226,0.018,0.0173,0.0064,0.0044,-0.0005,-0.0099,-0.012,-0.0136,-0.0148,-0.035,-0.0351,-0.0353,-0.0257,-0.0252,-0.0249,0,0,0,0,0,0.036,0.0362,0.035,0.0345,0.03,0.0265,0.0254,0.0206,0.0179,0.0162,0.0094,0.0046,-0.0125,-0.0106,-0.0131,-0.015,-0.0349,-0.0351,-0.0353,-0.0259,-0.0253,-0.0249,0,0,0,0,0,0,0.0359,0.0354,0.034,0.0335,0.03,0.0253,0.0229,0.0195,0.0129,0.0108,0.0034,0.001,-0.0066,-0.0129,-0.0106,-0.0221,-0.0246,-0.0253,-0.0166,-0.0162,-0.0158,-0.0133,-0.0155,0,0,0,0,0,0.0365,0.0372,0.0346,0.0333,0.0322,0.027,0.0244,0.0209,0.0153,0.0122,0.0066,-0.0016,-0.009,-0.0141,-0.0208,-0.0279,-0.0321,-0.031,-0.0306,-0.0302,-0.03,-0.0365,-0.0366,-0.036,-0.036,-0.036,0,0,0.0352,0.0354,0.035,0.0334,0.0302,0.0287,0.0252,0.0207,0.0188,0.0105,0.0062,-0.0004,-0.0105,-0.0167,-0.0209,-0.0225,-0.0323,-0.0304,-0.03,-0.0301,-0.0367,-0.0368,-0.0368,-0.0362,-0.0362,-0.0361,0,0,0.0329,0.0341,0.0332,0.0322,0.0285,0.0274,0.026,0.0217,0.0191,0.0142,0.008,0.0015,-0.0092,-0.0151,-0.0204,-0.0227,-0.0293,-0.0264,-0.0232,-0.0295,-0.0295,-0.0296,-0.0327,-0.0331,-0.0268,-0.0268,-0.0268,0,0.0309,0.0316,0.0316,0.0308,0.0306,0.0273,0.0258,0.0232,0.0168,0.0146,0.0137,-0.0006,-0.0079,-0.0173,-0.017,-0.0216,-0.0256,-0.0235,-0.0286,-0.0288,-0.029,-0.0323,-0.0329,-0.0264,-0.0264,-0.0265,-0.0265,0,0.0294,0.0289,0.0285,0.029,0.0282,0.0269,0.0252,0.0235,0.0215,0.0187,0.0113,0.0034,-0.0054,-0.0087,-0.0135,-0.0203,-0.0225,-0.0261,-0.0286,-0.0284,-0.0319,-0.0327,-0.0257,-0.0259,-0.026,-0.0261,0,0,0.0261,0.0278,0.0266,0.0277,0.0282,0.0274,0.0262,0.0244,0.0228,0.0181,0.0153,0.005,0.0011,-0.0051,-0.0124,-0.0174,-0.0207,-0.0219,-0.0225,-0.0227,-0.0328,-0.03,-0.0307,-0.0255,-0.0257,-0.0258,-0.0336,0,0.0243,0.0248,0.026,0.0259,0.027,0.0272,0.0274,0.0247,0.0231,0.0207,0.0122,0.0068,0.0019,-0.0023,-0.008,-0.0185,-0.0228,-0.0181,-0.0351,-0.0355,-0.0312,-0.0316,-0.0323,-0.039,-0.0344,-0.0345,-0.0346,0,0.0216,0.0237,0.0241,0.0276,0.0278,0.0275,0.0291,0.0288,0.0246,0.023,0.0166,0.0106,0.0016,-0.0012,-0.0173,-0.0145,-0.0225,-0.029,-0.0296,-0.0312,-0.0343,-0.0393,-0.0407,-0.036,-0.0359,-0.0358,-0.0357,0,0.0206,0.022,0.0239,0.0251,0.0281,0.0275,0.0296,0.0278,0.0298,0.0242,0.025,0.012,0.0078,-0.0057,-0.0183,-0.0189,-0.0339,-0.0372,-0.0419,-0.0418,-0.0478,-0.0478,-0.0473,-0.0473,-0.0473,-0.0472,-0.0472,0,0.0205,0.0206,0.0234,0.0243,0.0268,0.0283,0.0305,0.0299,0.0313,0.0357,0.0262,0.027,0.0067,-0.0035,-0.0172,-0.0311,-0.0339,-0.0409,-0.0441,-0.0441,-0.0438,-0.0465,-0.0463,-0.0475,-0.0475,-0.0474,-0.0474,0,0.0169,0.0191,0.021,0.0243,0.0258,0.027,0.0345,0.0381,0.0383,0.044,0.0434,0.0368,0.0249,0.0053,-0.0155,-0.027,-0.0427,-0.0467,-0.0432,-0.0457,-0.0464,-0.0457,-0.0534,-0.0534,-0.0534,-0.0534,-0.0533,0,0.0153,0.0157,0.0202,0.0231,0.0242,0.0288,0.0344,0.0395,0.047,0.0527,0.0574,0.0476,0.0447,0.0152,-0.0104,-0.0353,-0.039,-0.0502,-0.0513,-0.0449,-0.0473,-0.0466,-0.0459,-0.0555,-0.0555,-0.0555,-0.0555,0,0.0123,0.0128,0.0157,0.0224,0.0278,0.0379,0.0474,0.0555,0.0655,0.0712,0.081,0.0785,0.0524,0.025,-0.0105,-0.0257,-0.047,-0.0505,-0.0487,-0.0518,-0.047,-0.0492,-0.0485,-0.0555,-0.0555,-0.0555,-0.0555,-0.0555,0.009,0.011,0.0161,0.0229,0.0313,0.048,0.0608,0.0745,0.0894,0.1009,0.0959,0.0878,0.0493,0.0025,-0.0204,-0.0418,-0.0412,-0.0542,-0.0542,-0.0542,-0.0511,-0.0464,-0.054,-0.054,-0.054,-0.054,-0.054,0,0.008,0.0126,0.0182,0.0305,0.0441,0.0482,0.0716,0.0873,0.1094,0.1063,0.11,0.0662,0.0352,0.0014,-0.0299,-0.0506,-0.0518,-0.0564,-0.0576,-0.0575,-0.0575,-0.0545,-0.0584,-0.0584,-0.0584,-0.0584,0,0,0.0074,0.014,0.0191,0.0404,0.0511,0.0762,0.0924,0.1127,0.1176,0.1134,0.0989,0.0722,0.0303,-0.0006,-0.0287,-0.0399,-0.0418,-0.0411,-0.0362,-0.0342,-0.0337,-0.0557,-0.0509,0,0,0,0,0]}],[{"header":{"parameterUnit":"m.s-1","parameterCategory":2,"la1":30.2991,"la2":30.254,"lo1":-89.0895,"lo2":-89.0444,"dy":0.0017,"dx":0.0017,"nx":28,"ny":28,"refTime":"2025-07-15T21:00:00:Z","depth":"4","parameterNumber":2,"parameterNumberName":"U-component_of_CURRENTS"},"data":[0,0,0,0,0,0,0,0,0,0,0,0,0,0,0,0,0,0,0,0,0,0,0,0,0,0,0,0,0,0,0,0,0,0,0,0,0,0,0,0,0,0,0,0,0,0,0,0,0,0,0,0,0,0,0,0,0,0,0.0139,0.0139,0,0.0158,0.0159,0.0159,0.0165,0.0165,0.0165,0.0165,0.0105,0.0104,0.0102,0,0,0,0,0,0,0,0,0,0,0,0,0,0.0111,0.0111,0.0139,0.0139,0.0139,0.0158,0.0159,0.0159,0.0165,0.0165,0.0165,0.0165,0.0106,0.0104,0.0102,0,0,0,0,0,0,0,0,0,0,0,0,0,0.0126,0.0111,0.0139,0.0144,0.0145,0.0158,0.0159,0.0159,0.0165,0.0165,0.0165,0.0164,0.0106,0.0104,0.0102,0.0091,0,0,0.0095,0.0094,0,0,0,0,0,0,0,0,0.0125,0.0127,0.0143,0.0144,0.0145,0.0159,0.0127,0.0132,0.0165,0.0157,0.0165,0.0164,0.0116,0.0113,0.0118,0.0089,0.0086,0.0095,0.0094,0.0093,0.0092,0,0,0,0,0,0,0,0.0124,0.0126,0.0147,0.0144,0.0145,0.0148,0.015,0.0129,0.0136,0.0158,0.0159,0.0161,0.0116,0.012,0.0117,0.0085,0.0095,0.0093,0.0092,0.0091,-0.0035,-0.0037,0,0,0,0,0,0,0.0121,0.0125,0.0146,0.0147,0.0134,0.0148,0.015,0.0155,0.0138,0.0136,0.0161,0.0161,0.0124,0.0119,0.0114,0.0053,0.0093,0.0091,0.0089,-0.0033,-0.0035,-0.0037,0,0,0,0,0,0,0.0121,0.0123,0.0145,0.0136,0.0139,0.0149,0.0154,0.0155,0.0161,0.0141,0.0137,0.0166,0.0124,0.0118,0.0093,0.0053,0.009,0.0088,-0.003,-0.0033,-0.0036,-0.0039,0,0,0,0,0,0,0.012,0.0123,0.0134,0.0136,0.014,0.0157,0.0154,0.0156,0.0163,0.0163,0.0143,0.0138,0.0123,0.0097,0.0091,0.005,0.0086,-0.0028,-0.0032,-0.0035,-0.0036,-0.0042,-0.0046,0,0,0,0,0,0.0119,0.0129,0.0134,0.0137,0.0151,0.0158,0.016,0.0166,0.0163,0.017,0.015,0.0139,0.0067,0.0095,0.0088,0.0046,-0.0026,-0.0031,-0.0035,-0.0034,-0.0041,-0.0046,0,0,0,0,0,0,0.0122,0.0131,0.0136,0.0149,0.0156,0.0159,0.0165,0.0168,0.016,0.0153,0.0134,0.0127,0.0083,0.0066,0.0096,-0.0007,0.001,0.0004,0.0012,0.0006,0.0001,0.0041,0.0084,0,0,0,0,0,0.0128,0.0135,0.0145,0.0153,0.0157,0.0162,0.0167,0.0168,0.016,0.0158,0.0138,0.0101,0.0058,0.0038,0.0005,-0.0034,-0.0009,-0.0076,-0.0081,-0.0084,-0.006,-0.0065,-0.0067,-0.0052,-0.0052,-0.0052,0,0,0.0126,0.0135,0.0137,0.0154,0.0158,0.0168,0.0165,0.0168,0.0171,0.0149,0.0136,0.0092,0.0045,-0.0006,-0.003,-0.0023,-0.0074,-0.009,-0.0093,-0.0066,-0.007,-0.0071,-0.0071,-0.0055,-0.0055,-0.0054,0,0,0.0129,0.0138,0.0148,0.0152,0.0162,0.017,0.0172,0.0171,0.0166,0.0146,0.0116,0.007,0.0007,-0.0025,-0.0055,-0.0103,-0.0097,-0.0151,-0.0144,-0.0151,-0.015,-0.015,-0.01,-0.0095,-0.0157,-0.0157,-0.0157,0,0.0131,0.0146,0.0151,0.016,0.0165,0.0172,0.0181,0.018,0.0168,0.0162,0.0137,0.0047,0.0005,-0.0047,-0.0085,-0.011,-0.01,-0.0113,-0.0152,-0.0151,-0.0151,-0.0099,-0.0094,-0.0158,-0.0158,-0.0158,-0.0158,0,0.0134,0.0151,0.0153,0.0171,0.018,0.0183,0.0186,0.0183,0.0167,0.0162,0.0109,0.005,-0.0002,-0.0051,-0.0089,-0.0132,-0.012,-0.015,-0.0123,-0.0151,-0.0097,-0.0091,-0.0159,-0.0159,-0.0158,-0.0158,0,0,0.0122,0.0154,0.0153,0.0169,0.0183,0.019,0.0192,0.0203,0.0204,0.0163,0.0156,0.0053,0.0019,-0.0017,-0.0079,-0.01,-0.01,-0.0138,-0.0138,-0.0061,-0.008,-0.0011,0.0002,-0.0153,-0.0152,-0.0152,-0.0035,0,0.0126,0.0151,0.0165,0.0187,0.0202,0.0207,0.0213,0.0215,0.0202,0.0196,0.0139,0.0095,0.0032,-0.002,-0.0048,-0.0098,-0.009,-0.0126,-0.0086,-0.0083,0.0002,0.0009,-0.0151,-0.003,-0.0028,-0.0027,-0.0027,0,0.0121,0.0144,0.0166,0.0204,0.0209,0.0223,0.0236,0.0239,0.0236,0.0213,0.0175,0.0137,0.0088,0.0033,-0.0003,-0.0034,-0.005,-0.0069,-0.0066,0.001,-0.0004,-0.0006,-0.0015,-0.0016,-0.0017,-0.0018,-0.0019,0,0.0103,0.0144,0.0167,0.0172,0.0211,0.0219,0.0237,0.0241,0.0248,0.0224,0.0221,0.0172,0.0144,0.0102,0.0064,0.001,0.0066,-0.0008,0.0069,0.0076,-0.0017,-0.0019,0.0007,0.0007,0.0006,0.0006,0.0006,0,0.0094,0.0111,0.0162,0.0166,0.0196,0.0216,0.0237,0.0237,0.0251,0.027,0.0223,0.0226,0.015,0.0169,0.0116,0.0143,0.0117,0.0103,0.0109,-0.0021,-0.0025,-0.0011,-0.0014,0.001,0.0009,0.0009,0.0008,0,0.006,0.0092,0.012,0.0167,0.0187,0.0197,0.0249,0.0262,0.0268,0.0293,0.0284,0.0281,0.0288,0.028,0.025,0.0235,0.0234,0.026,0.0198,0.0193,0.0237,0.0231,0.0336,0.034,0.0343,0.0345,0.0347,0,0.0046,0.0054,0.011,0.0134,0.0156,0.0191,0.0216,0.0249,0.0271,0.0327,0.034,0.0379,0.0372,0.0428,0.0386,0.0387,0.0362,0.0395,0.0241,0.0276,0.027,0.026,0.025,0.0352,0.0352,0.0353,0.0354,0,0.0013,0.0028,0.005,0.0104,0.014,0.0186,0.0233,0.0261,0.0307,0.0328,0.0392,0.0418,0.0472,0.0456,0.0506,0.0475,0.0374,0.0423,0.0414,0.0269,0.0295,0.0284,0.0272,0.0364,0.0362,0.0361,0.0361,0,-0.002,-0.001,0.0028,0.0075,0.0124,0.018,0.0209,0.0272,0.031,0.0384,0.0414,0.0454,0.0482,0.0509,0.0531,0.0544,0.0486,0.0443,0.0431,0.042,0.0388,0.043,0.0573,0,0,0,0,0,-0.0052,-0.003,0.0008,0.0071,0.0123,0.0161,0.0225,0.0256,0.0321,0.0368,0.0398,0.0442,0.0495,0.0511,0.053,0.0539,0.0475,0.0561,0.0416,0.0419,0.0407,0.0358,0,0,0,0,0,0,-0.0067,-0.0043,-0.0005,0.0064,0.011,0.0173,0.0215,0.0259,0.0295,0.0356,0.0378,0.0433,0.0469,0.0474,0.0522,0.0531,0.0439,0.0593,0.0594,0.0425,0.0415,0.0406,0.0351,0,0,0,0,0]},{"header":{"parameterUnit":"m.s-1","parameterCategory":2,"la1":30.2991,"la2":30.254,"lo1":-89.0895,"lo2":-89.0444,"dy":0.0017,"dx":0.0017,"nx":28,"ny":28,"refTime":"2025-07-15T21:00:00:Z","depth":"4","parameterNumber":3,"parameterNumberName":"V-component_of_CURRENTS"},"data":[0,0,0,0,0,0,0,0,0,0,0,0,0,0,0,0,0,0,0,0,0,0,0,0,0,0,0,0,0,0,0,0,0,0,0,0,0,0,0,0,0,0,0,0,0,0,0,0,0,0,0,0,0,0,0,0,0,0,-0.0351,-0.0351,0,-0.0409,-0.041,-0.041,-0.0483,-0.0484,-0.0485,-0.0486,-0.0584,-0.0585,-0.0587,0,0,0,0,0,0,0,0,0,0,0,0,0,-0.0314,-0.0315,-0.0351,-0.0351,-0.0352,-0.0408,-0.041,-0.0411,-0.0483,-0.0484,-0.0485,-0.0486,-0.0583,-0.0585,-0.0587,0,0,0,0,0,0,0,0,0,0,0,0,0,-0.035,-0.0315,-0.0351,-0.0392,-0.0396,-0.0408,-0.041,-0.0411,-0.0483,-0.0484,-0.0485,-0.0487,-0.0582,-0.0585,-0.0588,-0.0579,0,0,-0.0596,-0.0597,0,0,0,0,0,0,0,0,-0.0348,-0.0352,-0.0386,-0.0389,-0.0394,-0.0437,-0.0432,-0.0468,-0.0483,-0.0454,-0.0486,-0.0487,-0.0535,-0.0542,-0.0554,-0.0584,-0.0588,-0.0596,-0.0598,-0.0599,-0.06,0,0,0,0,0,0,0,-0.0346,-0.035,-0.0377,-0.0386,-0.0391,-0.0411,-0.0418,-0.044,-0.049,-0.0456,-0.0461,-0.0461,-0.0538,-0.0551,-0.0557,-0.0589,-0.0596,-0.0599,-0.06,-0.0601,-0.0721,-0.0722,0,0,0,0,0,0,-0.0329,-0.0347,-0.0375,-0.0379,-0.037,-0.0411,-0.0418,-0.0425,-0.0489,-0.0499,-0.046,-0.0464,-0.0546,-0.0554,-0.0561,-0.0621,-0.0599,-0.0602,-0.0603,-0.0719,-0.0721,-0.0723,0,0,0,0,0,0,-0.0329,-0.0332,-0.0373,-0.0361,-0.0368,-0.0409,-0.0416,-0.0425,-0.0467,-0.0491,-0.0503,-0.0495,-0.0547,-0.0557,-0.0601,-0.0623,-0.0603,-0.0605,-0.0717,-0.072,-0.0722,-0.0698,0,0,0,0,0,0,-0.0327,-0.0331,-0.0337,-0.036,-0.0368,-0.0388,-0.0415,-0.0425,-0.0461,-0.0469,-0.0524,-0.0533,-0.0549,-0.0597,-0.0603,-0.0626,-0.0608,-0.0715,-0.0718,-0.0721,-0.0697,-0.0699,-0.0701,0,0,0,0,0,-0.0326,-0.0327,-0.0338,-0.0341,-0.0373,-0.0387,-0.0394,-0.043,-0.0462,-0.0475,-0.0519,-0.0533,-0.0621,-0.0599,-0.0607,-0.0631,-0.0714,-0.0718,-0.0721,-0.0696,-0.0698,-0.0701,0,0,0,0,0,0,-0.0317,-0.0334,-0.0347,-0.0355,-0.0372,-0.0399,-0.0413,-0.0442,-0.0487,-0.051,-0.054,-0.0551,-0.0602,-0.0623,-0.0598,-0.0679,-0.0675,-0.068,-0.0653,-0.0656,-0.0658,-0.0639,-0.061,0,0,0,0,0,-0.0314,-0.0324,-0.0339,-0.0349,-0.0356,-0.0391,-0.0407,-0.0436,-0.0472,-0.0495,-0.0538,-0.0586,-0.0617,-0.0641,-0.0675,-0.0708,-0.0706,-0.0736,-0.0738,-0.074,-0.0732,-0.0739,-0.0739,-0.0734,-0.0734,-0.0734,0,0,-0.031,-0.0325,-0.0329,-0.0348,-0.0369,-0.0379,-0.0406,-0.0439,-0.0461,-0.0497,-0.0557,-0.0596,-0.063,-0.0671,-0.0697,-0.0692,-0.0743,-0.0744,-0.0744,-0.0736,-0.0742,-0.0742,-0.0742,-0.0736,-0.0736,-0.0736,0,0,-0.0302,-0.0324,-0.0325,-0.0343,-0.0374,-0.039,-0.0403,-0.045,-0.0484,-0.0533,-0.0568,-0.0612,-0.0677,-0.0694,-0.0709,-0.0744,-0.0754,-0.0779,-0.077,-0.0776,-0.0775,-0.0775,-0.077,-0.0769,-0.0778,-0.0778,-0.0778,0,-0.0299,-0.0306,-0.0328,-0.0339,-0.036,-0.0396,-0.0411,-0.0436,-0.0499,-0.0524,-0.0556,-0.065,-0.0679,-0.0705,-0.0724,-0.0745,-0.0753,-0.0749,-0.0774,-0.0774,-0.0773,-0.0769,-0.0768,-0.0778,-0.0778,-0.0778,-0.0778,0,-0.0293,-0.0304,-0.031,-0.0334,-0.0358,-0.038,-0.0414,-0.0447,-0.0501,-0.0535,-0.0599,-0.0641,-0.0694,-0.0717,-0.0731,-0.0755,-0.0762,-0.0772,-0.0755,-0.0772,-0.0767,-0.0766,-0.0776,-0.0777,-0.0777,-0.0777,0,0,-0.0277,-0.0296,-0.0304,-0.0314,-0.0367,-0.0382,-0.0414,-0.0446,-0.0469,-0.0541,-0.0576,-0.0636,-0.0677,-0.0698,-0.0728,-0.0736,-0.074,-0.0759,-0.0759,-0.0732,-0.0753,-0.0709,-0.0704,-0.0759,-0.0759,-0.0759,-0.0748,0,-0.0269,-0.0273,-0.03,-0.032,-0.0327,-0.0375,-0.04,-0.0445,-0.049,-0.053,-0.0577,-0.0628,-0.0663,-0.0696,-0.071,-0.0739,-0.074,-0.0741,-0.0761,-0.0761,-0.0701,-0.0703,-0.0759,-0.0747,-0.0747,-0.0747,-0.0747,0,-0.0265,-0.0267,-0.028,-0.0312,-0.0323,-0.0347,-0.0399,-0.0428,-0.0477,-0.0519,-0.057,-0.0613,-0.0647,-0.0673,-0.071,-0.0717,-0.0733,-0.0746,-0.0746,-0.071,-0.0716,-0.0733,-0.0746,-0.0746,-0.0746,-0.0746,-0.0746,0,-0.025,-0.0262,-0.0271,-0.0287,-0.0323,-0.0348,-0.0378,-0.0434,-0.0458,-0.0512,-0.0536,-0.0593,-0.062,-0.0656,-0.0687,-0.0711,-0.0707,-0.0741,-0.0708,-0.0705,-0.0756,-0.0757,-0.0748,-0.0748,-0.0748,-0.0748,-0.0748,0,-0.0245,-0.0253,-0.0261,-0.0272,-0.029,-0.034,-0.0372,-0.0405,-0.0451,-0.0463,-0.0534,-0.0538,-0.062,-0.0629,-0.0668,-0.0674,-0.0691,-0.0696,-0.0697,-0.0749,-0.0749,-0.0755,-0.0756,-0.0747,-0.0747,-0.0747,-0.0748,0,-0.0244,-0.0246,-0.0249,-0.0274,-0.0285,-0.0308,-0.0357,-0.0369,-0.0422,-0.0432,-0.0449,-0.05,-0.0522,-0.057,-0.0609,-0.0634,-0.0651,-0.0641,-0.067,-0.0674,-0.0655,-0.0656,-0.0629,-0.0627,-0.0625,-0.0624,-0.0623,0,-0.0244,-0.0243,-0.0248,-0.0246,-0.0262,-0.029,-0.0306,-0.0357,-0.0361,-0.0389,-0.038,-0.041,-0.0439,-0.0452,-0.052,-0.0576,-0.0584,-0.0593,-0.0652,-0.0639,-0.0642,-0.0645,-0.0647,-0.0621,-0.0621,-0.062,-0.062,0,-0.0243,-0.0246,-0.0243,-0.023,-0.0239,-0.0244,-0.0264,-0.0259,-0.0297,-0.0324,-0.0306,-0.0338,-0.0351,-0.0411,-0.0442,-0.0486,-0.0597,-0.0579,-0.0584,-0.064,-0.0629,-0.0635,-0.0639,-0.0615,-0.0616,-0.0616,-0.0616,0,-0.0245,-0.0236,-0.0224,-0.0215,-0.0213,-0.0208,-0.022,-0.0213,-0.0226,-0.0248,-0.0222,-0.0268,-0.0298,-0.0359,-0.0383,-0.0428,-0.0467,-0.0495,-0.0506,-0.0512,-0.049,-0.046,-0.0382,0,0,0,0,0,-0.0246,-0.0227,-0.0209,-0.0194,-0.0187,-0.0191,-0.0192,-0.0201,-0.0208,-0.0179,-0.0207,-0.0213,-0.0272,-0.0303,-0.0339,-0.0386,-0.0489,-0.0432,-0.053,-0.0587,-0.0593,-0.0583,0,0,0,0,0,0,-0.0242,-0.0224,-0.0203,-0.0178,-0.0167,-0.0164,-0.0165,-0.0169,-0.0157,-0.0163,-0.019,-0.0213,-0.0272,-0.0242,-0.0333,-0.0351,-0.0416,-0.0466,-0.0467,-0.0584,-0.0589,-0.0594,-0.0586,0,0,0,0,0]}]]